Home   Weather   Lashkar Gah   Past weeks
Flag for Afghanistan

Past Weather in Lashkar Gah, Afghanistan — Yesterday and Last 2 Weeks

Now
95 °F

Clear.


Feels Like: 91 °F
Forecast: 110 / 78 °F
Wind: 38 mph from Northwest

Location: Zabol Airport

Current Time: Jul 23, 2019 at 4:21:52 am

Latest Report: Jul 23, 2019 at 1:30 am


Visibility: 4 mi

Pressure: 29.45 "Hg (26.99 "Hg at 786m altitude)

Humidity: 19%

Dew Point: 46 °F

Location of Lashkar GahLocation

Past Weather in Lashkar Gah — Graph

°F

Lashkar Gah Temperature Yesterday

Maximum temperature yesterday: 117 °F (at 3:30 pm)
Minimum temperature yesterday: 93 °F (at 6:30 am)
Average temperature yesterday: 105 °F

High & Low Weather Summary for the Past Weeks

 TemperatureHumidityPressure
High117 °F (Jul 22, 3:30 pm)33% (Jul 13, 7:30 am)29.83 "Hg (Jul 13, 7:30 am)
Low84 °F (Jul 8, 4:30 am)7% (Jul 10, 2:30 pm)29.24 "Hg (Jul 10, 5:30 pm)
Average102 °F17%29.41 "Hg
* Reported Jul 8 1:30 am — Jul 23 1:30 am, Lashkar Gah. Weather by CustomWeather, © 2019

Note: Actual official high and low records may vary slightly from our data, if they occured in-between our weather recording intervals... More about our weather records

Advertising

Lashkar Gah Weather History for the Previous 24 Hours

Scroll right to see more
 ConditionsComfort  
Time TempWeatherWind HumidityBarometerVisibility
1:30 am
Tue, Jul 23
95 °FClear.38 mph19%29.45 "Hg4 mi
12:30 am97 °FClear.31 mph19%29.45 "Hg4 mi
11:30 pm
Mon, Jul 22
97 °FClear.33 mph20%29.45 "Hg5 mi
10:30 pm100 °FClear.29 mph18%29.45 "Hg5 mi
9:30 pm102 °FClear.22 mph16%29.42 "Hg4 mi
8:30 pm104 °FClear.16 mph15%29.42 "Hg4 mi
7:30 pm104 °FClear.5 mph20%29.39 "Hg4 mi
6:30 pm109 °FSunny.7 mph17%29.36 "Hg10 mi
5:30 pm113 °FSunny.9 mph12%29.39 "Hg10 mi
4:30 pm115 °FSunny.16 mph11%29.39 "Hg10 mi
3:30 pm117 °FSunny.12 mph12%29.42 "Hg10 mi
2:30 pm115 °FSunny.14 mph9%29.45 "Hg10 mi
1:30 pm115 °FClear.16 mph9%29.45 "Hg6 mi
12:30 pm113 °FClear.16 mph9%29.47 "Hg5 mi
11:30 am111 °FClear.21 mph11%29.50 "Hg4 mi
10:30 am108 °FSandstorm.31 mph15%29.50 "Hg3 mi
9:30 am102 °FClear.33 mph18%29.50 "Hg4 mi
8:30 am99 °FClear.33 mph22%29.53 "Hg4 mi
7:30 am95 °FClear.36 mph26%29.50 "Hg5 mi
6:30 am93 °FClear.33 mph28%29.50 "Hg5 mi
4:30 am95 °FClear.33 mph28%29.47 "Hg5 mi
Weather by CustomWeather, © 2019

See weather overview